This demonstration page uses our WeatherBlox Daily Observations layout. Learn more.

Left ArrowRight Arrow

39.08367, -84.50855

Hourly Observations for October 1, 2015

Temp ( °F °C ) Dew Point ( °F °C ) Humidity (%) Winds ( mph kmh ) Pressure ( in mb ) Visibility ( mi km ) Precip ( " mm )
12:53 am 00:53 Mostly Cloudy 59 15 50 10 72 72 NE 10 17 30.07 1018 10 16 0.00 0.00
1:53 am 01:53 Mostly Cloudy 58 14.4 50 10 75 75 NNE 12 19 30.06 1018 10 16 0.00 0.00
2:07 am 02:07 Cloudy 58 14.4 50 10 75 75 NNE 10 17 30.06 1018 10 16 0.00 0.00
2:53 am 02:53 Cloudy 58 14.4 50 10 75 75 NE 10 17 30.06 1018 10 16 0.00 0.00
3:53 am 03:53 Cloudy 58 14.4 50 10 75 75 NE 15 24 30.06 1018 10 16 0.00 0.00
4:53 am 04:53 Cloudy 57 13.9 49 9.4 74 74 NE 10 17 30.05 1018 10 16 0.00 0.00
5:53 am 05:53 Cloudy 56 13.3 49 9.4 77 77 NNE 9 15 30.06 1018 10 16 0.00 0.00
6:53 am 06:53 Cloudy 56 13.3 49 9.4 77 77 NNE 10 17 30.07 1018 10 16 0.00 0.00
7:53 am 07:53 Partly Cloudy 55 12.8 48 8.9 77 77 NNE 12 19 30.09 1019 10 16 0.00 0.00
8:53 am 08:53 Cloudy 55 12.8 48 8.9 77 77 NE 12 19 30.10 1019 10 16 0.00 0.00
9:07 am 09:07 Cloudy 55 12.8 48 8.9 77 77 NE 16 26 30.12 1020 10 16 0.00 0.00
9:53 am 09:53 Cloudy 55 12.8 47 8.3 74 74 NE 16 26 30.11 1020 10 16 0.00 0.00
10:53 am 10:53 Mostly Cloudy 56 13.3 47 8.3 72 72 NE 16 26 30.11 1020 10 16 0.00 0.00
11:53 am 11:53 Mostly Cloudy with Light Rain 54 12.2 48 8.9 80 80 NE 13 20 30.10 1019 10 16 0.00 0.03
12:53 pm 12:53 Cloudy with Light Rain 54 12.2 50 10 87 87 NNE 6 9 30.11 1020 10 16 0.04 1.02
1:53 pm 13:53 Mostly Cloudy 57 13.9 50 10 78 78 N 6 9 30.11 1020 10 16 0.01 0.25
2:53 pm 14:53 Sunny 61 16.1 52 11.1 72 72 N 9 15 30.08 1019 10 16 0.00 0.00
3:53 pm 15:53 Mostly Sunny 61 16.1 48 8.9 63 63 NNE 14 22 30.08 1019 10 16 0.00 0.00
4:53 pm 16:53 Sunny 63 17.2 48 8.9 58 58 NNE 12 19 30.08 1019 10 16 0.00 0.00
5:53 pm 17:53 Sunny 63 17.2 49 9.4 60 60 NNE 15 24 30.08 1019 10 16 0.00 0.00
6:53 pm 18:53 Sunny 62 16.7 49 9.4 62 62 NNE 13 20 30.09 1019 10 16 0.00 0.00
7:53 pm 19:53 Cloudy 61 16.1 50 10 67 67 NNE 14 22 30.10 1019 10 16 0.00 0.00
8:53 pm 20:53 Cloudy 59 15 49 9.4 69 69 NNE 16 26 30.12 1020 10 16 0.00 0.00
9:43 pm 21:43 Cloudy 58 14.4 49 9.4 72 72 NNE 10 17 30.12 1020 10 16 0.00 0.00
9:53 pm 21:53 Cloudy 58 14.4 49 9.4 72 72 NNE 12 19 30.13 1020 10 16 0.00 0.00
10:40 pm 22:40 Cloudy 57 14 48 9 72 72 NNE 10 17 30.15 1021 10 16 0.00 0.00
10:53 pm 22:53 Cloudy 57 13.9 49 9.4 74 74 NNE 13 20 30.13 1020 10 16 0.00 0.03
11:38 pm 23:38 Cloudy 57 14 48 9 72 72 NNE 9 15 30.15 1021 10 16 0.00 0.00
11:53 pm 23:53 Cloudy 57 13.9 49 9.4 74 74 NNE 9 15 30.14 1021 10 16 0.00 0.00

Powered by AerisWeather